• In Hungary
  • List of Countries
  • For 7 days
  • Water Temperature
  • Satellite Maps
  • Weather Map
  • News
  • Weather Widgets
  • user-avatar
    Login

    Hourly Weather Dyakovo

    Today, 25 September, Tuesday

    Time Temperature Precipitation Wind Pressure Humidity
    00:00 +8°C° 0 mm 7 mps 728 mmHg 85%
    01:00 +6°C° 0 mm 7 mps 729 mmHg 85%
    02:00 +7°C° 0 mm 5 mps 729 mmHg 85%
    03:00 +7°C° 0 mm 5 mps 729 mmHg 85%
    04:00 +7°C° 0 mm 6 mps 730 mmHg 85%
    05:00 +5°C° 0 mm 6 mps 730 mmHg 85%
    06:00 +7°C° 0 mm 6 mps 731 mmHg 84%
    07:00 +7°C° 0 mm 6 mps 731 mmHg 82%
    08:00 +6°C° 0 mm 7 mps 731 mmHg 81%
    09:00 +6°C° 0.1 mm 7 mps 732 mmHg 78%
    10:00 +8°C° 0.1 mm 7 mps 733 mmHg 75%
    11:00 +8°C° 0.1 mm 7 mps 733 mmHg 72%
    12:00 +8°C° 0 mm 7 mps 734 mmHg 71%
    13:00 +8°C° 0 mm 7 mps 735 mmHg 70%
    14:00 +8°C° 0 mm 6 mps 736 mmHg 68%
    15:00 +8°C° 0 mm 5 mps 736 mmHg 69%
    16:00 +8°C° 0 mm 5 mps 737 mmHg 70%
    17:00 +7°C° 0 mm 5 mps 738 mmHg 71%
    18:00 +7°C° 0 mm 5 mps 738 mmHg 73%
    19:00 +6°C° 0 mm 4 mps 739 mmHg 74%
    20:00 +6°C° 0 mm 4 mps 739 mmHg 76%
    21:00 +5°C° 0 mm 4 mps 740 mmHg 79%
    22:00 +5°C° 0 mm 4 mps 740 mmHg 81%
    23:00 +4°C° 0 mm 4 mps 741 mmHg 84%

    Tomorrow, 26 September, Wednesday

    Time Temperature Precipitation Wind Pressure Humidity
    00:00 +4°C° 0 mm 4 mps 741 mmHg 86%
    01:00 +3°C° 0 mm 4 mps 742 mmHg 88%
    02:00 +3°C° 0 mm 3 mps 742 mmHg 90%
    03:00 +2°C° 0 mm 3 mps 743 mmHg 91%
    04:00 +2°C° 0 mm 3 mps 743 mmHg 92%
    05:00 +2°C° 0 mm 3 mps 744 mmHg 93%
    06:00 +3°C° 0 mm 4 mps 745 mmHg 88%
    07:00 +3°C° 0 mm 4 mps 745 mmHg 84%
    08:00 +4°C° 0 mm 4 mps 746 mmHg 79%
    09:00 +5°C° 0 mm 4 mps 746 mmHg 71%
    10:00 +7°C° 0 mm 4 mps 746 mmHg 64%
    11:00 +8°C° 0 mm 4 mps 746 mmHg 56%
    12:00 +8°C° 0 mm 4 mps 746 mmHg 54%
    13:00 +10°C° 0 mm 4 mps 746 mmHg 52%
    14:00 +10°C° 0 mm 4 mps 746 mmHg 50%
    15:00 +8°C° 0 mm 4 mps 746 mmHg 54%
    16:00 +9°C° 0 mm 3 mps 746 mmHg 59%
    17:00 +8°C° 0 mm 3 mps 746 mmHg 64%
    18:00 +8°C° 0 mm 3 mps 746 mmHg 65%
    19:00 +6°C° 0 mm 4 mps 745 mmHg 67%
    20:00 +5°C° 0 mm 4 mps 745 mmHg 69%
    21:00 +5°C° 0 mm 5 mps 745 mmHg 67%
    22:00 +5°C° 0 mm 6 mps 744 mmHg 65%
    23:00 +5°C° 0 mm 6 mps 743 mmHg 63%

    Day after tomorrow, 27 September, Thursday

    Time Temperature Precipitation Wind Pressure Humidity
    00:00 +5°C° 0.1 mm 7 mps 742 mmHg 62%
    01:00 +5°C° 0.1 mm 7 mps 742 mmHg 61%
    02:00 +5°C° 0.1 mm 8 mps 741 mmHg 60%
    03:00 +5°C° 0.5 mm 9 mps 740 mmHg 65%
    04:00 +3°C° 0.5 mm 9 mps 739 mmHg 70%
    05:00 +3°C° 0.5 mm 10 mps 737 mmHg 75%
    06:00 +3°C° 0.3 mm 10 mps 737 mmHg 77%
    07:00 +5°C° 0.3 mm 10 mps 736 mmHg 80%
    08:00 +4°C° 0.3 mm 11 mps 736 mmHg 82%
    09:00 +5°C° 0.4 mm 10 mps 735 mmHg 84%
    10:00 +6°C° 0.4 mm 10 mps 735 mmHg 85%
    11:00 +6°C° 0.4 mm 9 mps 735 mmHg 86%
    12:00 +7°C° 0.1 mm 9 mps 735 mmHg 85%
    13:00 +7°C° 0.1 mm 8 mps 735 mmHg 84%
    14:00 +9°C° 0.1 mm 8 mps 735 mmHg 82%
    15:00 +9°C° 0 mm 7 mps 736 mmHg 81%
    16:00 +9°C° 0 mm 6 mps 736 mmHg 79%
    17:00 +9°C° 0 mm 5 mps 736 mmHg 77%
    18:00 +8°C° 0 mm 5 mps 737 mmHg 81%
    19:00 +7°C° 0 mm 5 mps 737 mmHg 84%
    20:00 +7°C° 0 mm 5 mps 738 mmHg 88%
    21:00 +7°C° 0 mm 5 mps 738 mmHg 90%
    22:00 +7°C° 0 mm 5 mps 738 mmHg 91%
    23:00 +6°C° 0 mm 4 mps 738 mmHg 93%

    28 September, Friday

    Time Temperature Precipitation Wind Pressure Humidity
    00:00 +6°C° 0 mm 4 mps 738 mmHg 93%
    01:00 +6°C° 0 mm 4 mps 738 mmHg 94%
    02:00 +6°C° 0 mm 4 mps 738 mmHg 95%
    03:00 +6°C° 0 mm 5 mps 737 mmHg 93%
    04:00 +5°C° 0 mm 6 mps 737 mmHg 92%
    05:00 +5°C° 0 mm 6 mps 736 mmHg 90%
    06:00 +6°C° 0 mm 7 mps 736 mmHg 88%
    07:00 +7°C° 0 mm 8 mps 735 mmHg 86%
    08:00 +8°C° 0 mm 9 mps 735 mmHg 84%
    09:00 +10°C° 0.1 mm 9 mps 735 mmHg 84%
    10:00 +10°C° 0.1 mm 9 mps 735 mmHg 84%
    11:00 +11°C° 0.1 mm 9 mps 734 mmHg 85%
    12:00 +11°C° 0 mm 9 mps 734 mmHg 85%
    13:00 +11°C° 0 mm 9 mps 734 mmHg 85%
    14:00 +12°C° 0 mm 8 mps 734 mmHg 85%
    15:00 +12°C° 0.2 mm 8 mps 734 mmHg 85%
    16:00 +12°C° 0.2 mm 7 mps 734 mmHg 86%
    17:00 +13°C° 0.2 mm 6 mps 734 mmHg 87%
    18:00 +11°C° 0.4 mm 6 mps 735 mmHg 87%
    19:00 +10°C° 0.4 mm 5 mps 736 mmHg 88%
    20:00 +10°C° 0.4 mm 4 mps 736 mmHg 88%
    21:00 +9°C° 0.3 mm 3 mps 737 mmHg 89%
    22:00 +8°C° 0.3 mm 2 mps 737 mmHg 89%
    23:00 +7°C° 0.3 mm 2 mps 738 mmHg 89%

    29 September, Saturday

    Time Temperature Precipitation Wind Pressure Humidity
    00:00 +7°C° 0 mm 2 mps 738 mmHg 90%
    01:00 +6°C° 0 mm 2 mps 739 mmHg 90%
    02:00 +5°C° 0 mm 2 mps 739 mmHg 90%
    03:00 +5°C° 0 mm 2 mps 739 mmHg 90%
    04:00 +5°C° 0 mm 1 mps 740 mmHg 90%
    05:00 +5°C° 0 mm 1 mps 740 mmHg 89%
    06:00 +6°C° 0 mm 1 mps 741 mmHg 85%
    07:00 +7°C° 0 mm 1 mps 741 mmHg 80%
    08:00 +8°C° 0 mm 1 mps 742 mmHg 76%
    09:00 +8°C° 0 mm 2 mps 742 mmHg 70%
    10:00 +9°C° 0 mm 2 mps 743 mmHg 64%
    11:00 +10°C° 0 mm 2 mps 743 mmHg 58%
    12:00 +12°C° 0 mm 2 mps 743 mmHg 57%
    13:00 +12°C° 0 mm 2 mps 743 mmHg 57%
    14:00 +12°C° 0 mm 2 mps 743 mmHg 56%
    15:00 +10°C° 0 mm 2 mps 744 mmHg 61%
    16:00 +9°C° 0 mm 2 mps 744 mmHg 67%
    17:00 +8°C° 0 mm 2 mps 744 mmHg 72%
    18:00 +8°C° 0 mm 2 mps 745 mmHg 73%
    19:00 +7°C° 0 mm 2 mps 745 mmHg 75%
    20:00 +6°C° 0 mm 2 mps 746 mmHg 76%
    21:00 +5°C° 0 mm 2 mps 746 mmHg 76%
    22:00 +5°C° 0 mm 2 mps 747 mmHg 75%
    23:00 +4°C° 0 mm 2 mps 747 mmHg 75%

    30 September, Sunday

    Time Temperature Precipitation Wind Pressure Humidity
    00:00 +3°C° 0 mm 2 mps 747 mmHg 75%
    01:00 +3°C° 0 mm 2 mps 748 mmHg 75%
    02:00 +2°C° 0 mm 2 mps 748 mmHg 76%
    03:00 +2°C° 0 mm 2 mps 748 mmHg 77%
    04:00 +2°C° 0 mm 2 mps 748 mmHg 78%
    05:00 +2°C° 0 mm 1 mps 749 mmHg 79%
    06:00 +3°C° 0 mm 1 mps 749 mmHg 74%
    07:00 +5°C° 0 mm 1 mps 749 mmHg 69%
    08:00 +6°C° 0 mm 1 mps 750 mmHg 64%
    09:00 +7°C° 0 mm 1 mps 750 mmHg 58%
    10:00 +9°C° 0 mm 1 mps 750 mmHg 51%
    11:00 +10°C° 0 mm 1 mps 750 mmHg 45%
    12:00 +10°C° 0 mm 1 mps 749 mmHg 43%
    13:00 +11°C° 0 mm 1 mps 749 mmHg 40%
    14:00 +11°C° 0 mm 1 mps 749 mmHg 38%
    15:00 +10°C° 0 mm 1 mps 748 mmHg 43%
    16:00 +9°C° 0 mm 1 mps 748 mmHg 47%
    17:00 +8°C° 0 mm 1 mps 748 mmHg 52%
    18:00 +7°C° 0 mm 1 mps 748 mmHg 53%
    19:00 +7°C° 0 mm 1 mps 748 mmHg 54%
    20:00 +5°C° 0 mm 2 mps 748 mmHg 55%
    21:00 +5°C° 0 mm 2 mps 748 mmHg 57%
    22:00 +4°C° 0 mm 2 mps 748 mmHg 58%
    23:00 +4°C° 0 mm 2 mps 748 mmHg 60%
    Show more